Simultaneous Nadir Overpasses (SNOs) Predictions

Prediction of SNOs between GOES-16 and AQUA Satellite Orbit:

Table of predicted SNOs for the next 14.0 days since TLE Epoch: 2/4/2023
Index Date Time (GOES-16) GOES-16 Lat,Lon AQUA Lat,Lon Distance(km) Time Diff (sec)
1 02/04/2023 07:02:04 -0.05, -75.19 0.74, -78.95 427.83 80
2 02/06/2023 06:48:50 -0.05, -75.20 0.06, -75.73 59.89 80
3 02/08/2023 06:32:55 -0.04, -75.22 -0.60, -72.49 309.02 80
4 02/08/2023 18:54:03 0.04, -75.22 -0.47, -77.62 272.90 80
5 02/10/2023 18:43:28 0.04, -75.24 0.22, -74.39 97.04 80
6 02/11/2023 07:04:27 -0.04, -75.25 0.86, -79.47 479.78 80
7 02/12/2023 18:30:13 0.04, -75.27 0.95, -71.17 467.46 80
8 02/13/2023 06:51:11 -0.04, -75.28 0.19, -76.24 109.38 80
9 02/15/2023 06:35:15 -0.03, -75.31 -0.51, -73.01 261.36 80
10 02/15/2023 18:56:22 0.03, -75.31 -0.59, -78.12 320.43 80
11 02/17/2023 18:45:45 0.00, -75.33 0.09, -74.88 51.26 80
